Temp
55 47 44 49 52 53 52 49 48 54 61 54 52 53 57 61 61 60 61 62 64 65 69 72 69 65 65 64 64 64 64 66 67 65 64 64 64 66 66 69 68 69 68 69
49 42 53 56 55 53 51 47 47 53 57 51 49 49 56 59 61 63 62 62 63 65 67 69 63 61 60 59 59 60 63 64 65 65 66 66 66 66 67 66 66 67 67 67
44 51 56 53 51 49 49 46 46 47 53 52 47 46 51 58 61 63 64 64 64 64 64 60 60 57 56 55 55 59 61 62 63 64 66 66 66 65 67 67 66 67 67 66
47 54 53 50 49 51 44 53 51 49 44 37 49 33 49 54 54 59 61 62 62 63 61 59 57 54 53 53 54 57 58 58 61 60 61 64 63 62 64 66 66 66 66 65
45 48 48 47 49 53 47 52 52 48 42 40 43 36 43 52 50 54 58 59 60 57 58 55 53 55 53 52 51 53 55 55 56 58 58 57 58 59 59 59 59 58 59 58
49 53 52 51 54 55 55 49 47 44 41 32 41 39 39 48 52 54 57 57 56 55 54 53 53 54 51 50 50 51 52 53 55 57 58 57 55 56 55 55 55 57 56 55
44 46 50 52 48 50 49 44 31 26 26 26 43 39 43 51 55 55 58 53 53 53 52 52 50 48 48 47 48 51 50 50 53 55 55 56 56 55 53 54 53 53 52 52
34 31 45 50 47 44 44 43 31 23 25 28 41 32 41 54 58 59 57 55 52 52 51 50 48 47 47 48 47 47 47 47 48 48 49 51 52 51 51 50 48 47 47 48
36 36 48 50 51 51 42 38 47 34 30 27 35 42 50 51 51 50 51 51 49 50 48 47 48 47 46 45 46 46 46 46 46 46 45 45 45 45 44 44 45 44 44 47
43 33 45 47 50 49 46 49 36 33 25 19 30 34 39 45 47 49 49 49 50 48 47 46 46 45 44 44 44 44 45 43 43 43 43 43 42 43 42 42 40 41 42 43
46 40 38 44 41 41 42 39 41 41 35 28 28 32 48 49 52 50 49 51 49 46 45 45 45 44 43 43 42 42 42 41 41 41 40 39 39 40 40 39 38 39 40 40
46 41 31 36 47 50 48 44 43 33 29 32 34 35 52 52 51 53 51 51 49 47 46 45 44 43 41 41 40 40 39 39 39 40 39 38 38 38 36 36 37 37 37 38
46 37 29 31 39 44 40 44 45 43 34 33 29 34 54 53 49 50 49 49 48 47 46 45 43 42 41 39 39 38 37 37 37 37 36 35 34 34 33 34 34 35 35 36
49 39 35 31 36 39 36 41 43 40 32 33 34 38 46 49 48 49 49 48 46 46 46 43 42 41 41 39 38 36 36 36 35 35 33 31 32 32 33 33 33 33 34 34
44 33 37 39 41 42 42 40 40 38 39 33 38 37 45 49 50 49 49 49 47 46 46 45 43 42 39 37 36 36 34 34 34 32 31 30 31 31 31 31 31 31 32 33
44 31 35 30 39 40 37 40 42 41 42 41 41 40 51 53 52 51 53 50 48 47 46 46 45 43 40 38 35 36 32 32 32 30 28 30 29 29 29 29 29 30 30 31
40 35 32 28 34 34 29 36 39 41 44 43 37 45 51 50 52 53 54 51 49 48 47 46 45 43 41 38 36 32 31 30 29 28 28 28 28 27 27 28 27 27 27 28
37 35 34 29 25 21 37 45 45 42 44 47 47 49 51 52 55 52 52 50 51 50 49 47 45 42 38 34 32 31 30 29 28 27 26 27 26 26 26 26 26 26 26 26
38 35 31 27 26 32 35 39 40 38 39 47 46 49 52 53 51 50 56 55 52 52 51 48 45 39 30 29 29 29 30 28 27 26 26 26 26 24 24 23 23 24 25 25
37 37 32 29 24 20 37 44 48 43 32 48 49 48 48 50 41 48 57 51 50 48 44 38 33 29 27 26 28 27 27 27 26 26 25 25 24 23 22 22 22 23 24 25
29 30 26 27 26 28 36 42 45 28 32 42 44 44 47 45 49 53 41 38 37 35 32 28 26 24 23 24 26 25 25 23 24 23 22 21 22 21 21 20 20 20 20 22
27 24 21 26 23 21 41 38 35 40 37 35 36 38 39 38 40 36 32 29 29 27 26 25 23 21 22 25 25 23 22 21 20 20 19 18 18 22 20 13 17 17 16 15
24 31 26 29 27 37 35 36 37 36 37 36 36 37 36 34 35 32 30 27 26 25 23 23 21 20 23 24 24 21 18 18 17 17 15 15 17 18 17 13 15 13 13 12
32 38 34 34 37 37 37 36 39 39 38 37 35 32 33 35 35 31 28 26 24 23 21 21 19 18 18 20 21 18 17 16 14 13 14 15 15 15 15 18 18 13 10 10
34 33 34 33 35 35 37 36 31 32 34 32 30 30 31 34 33 30 27 24 22 21 20 19 18 17 16 15 14 14 13 12 13 13 14 15 13 12 14 15 13 15 15 14
37 35 30 30 35 35 36 26 27 27 29 29 28 26 27 29 29 27 23 22 20 18 18 17 16 14 13 11 9 8 10 12 13 12 13 12 12 11 12 11 10 18 17 17
MSLP
1016.30 1016.38 1015.55 1015.74 1015.83 1015.91 1015.73 1015.55 1015.18 1014.47 1014.27 1014.63 1014.83 1014.62 1014.21 1013.86 1013.42 1013.30 1013.36 1013.23 1013.20 1013.18 1013.03 1013.30 1013.56 1013.93 1014.28 1014.68 1014.93 1015.10 1015.10 1014.77 1014.43 1014.16 1013.99 1013.99 1014.03 1014.12 1014.17 1014.37 1014.69 1015.16 1015.62 1015.75
1016.39 1015.59 1015.79 1015.77 1015.69 1015.95 1016.02 1015.92 1015.66 1015.12 1014.88 1015.31 1015.41 1015.12 1014.55 1014.03 1013.27 1012.91 1012.91 1012.88 1012.95 1013.09 1013.23 1013.41 1014.04 1014.52 1015.14 1015.60 1015.94 1015.85 1015.49 1015.02 1014.64 1014.20 1013.71 1013.50 1013.62 1013.76 1013.86 1014.04 1014.43 1014.88 1015.26 1015.41
1015.69 1015.07 1015.55 1015.73 1015.69 1015.82 1015.84 1016.06 1016.20 1016.07 1015.76 1015.73 1016.08 1014.92 1014.01 1012.47 1012.02 1012.32 1012.22 1012.48 1012.71 1013.05 1013.60 1014.11 1014.50 1015.20 1015.83 1016.41 1016.59 1016.34 1015.80 1015.27 1014.77 1014.34 1013.64 1013.38 1013.38 1013.63 1013.80 1014.11 1014.36 1014.47 1014.64 1014.98
1015.80 1015.46 1015.13 1015.41 1015.33 1015.62 1015.73 1016.13 1016.45 1016.65 1016.88 1016.75 1016.51 1014.65 1013.19 1012.25 1011.60 1011.53 1011.76 1012.16 1012.57 1013.10 1013.90 1014.52 1015.15 1016.06 1016.84 1017.13 1017.01 1016.62 1016.31 1016.00 1015.43 1014.84 1014.18 1013.68 1013.81 1014.22 1014.23 1014.20 1014.43 1014.51 1014.78 1015.04
1014.72 1014.71 1014.79 1014.87 1015.07 1015.37 1015.76 1016.04 1016.40 1016.92 1017.37 1017.69 1017.23 1016.54 1012.87 1011.72 1011.60 1011.57 1011.56 1011.90 1012.47 1013.44 1014.16 1015.18 1015.95 1016.76 1017.33 1017.55 1017.51 1017.08 1016.76 1016.49 1016.03 1015.45 1015.08 1014.77 1014.95 1015.17 1015.45 1015.51 1015.37 1015.78 1016.02 1016.34
1014.95 1014.84 1014.66 1014.65 1015.09 1015.37 1016.00 1016.79 1017.28 1017.66 1018.20 1017.62 1017.20 1016.72 1012.43 1012.01 1011.19 1011.03 1011.41 1012.17 1013.00 1013.93 1014.76 1015.74 1016.63 1017.18 1017.82 1018.06 1018.02 1017.69 1017.31 1017.14 1016.62 1016.19 1015.93 1015.81 1016.00 1016.12 1016.14 1016.25 1016.36 1016.66 1016.94 1017.13
1015.25 1015.00 1014.94 1014.82 1015.04 1015.61 1016.15 1017.04 1017.98 1018.72 1018.70 1017.19 1016.10 1016.00 1012.09 1011.26 1010.77 1010.67 1011.23 1012.46 1013.40 1014.28 1015.18 1016.14 1017.01 1017.65 1018.31 1018.48 1018.50 1018.37 1018.07 1017.74 1017.40 1017.05 1016.94 1016.74 1016.72 1016.86 1017.09 1017.34 1017.64 1017.74 1017.94 1018.11
1014.71 1015.14 1014.58 1014.86 1014.81 1015.05 1015.78 1016.62 1016.91 1017.67 1017.82 1016.93 1016.01 1013.89 1011.69 1010.75 1010.44 1010.78 1011.35 1012.43 1013.55 1014.59 1015.53 1016.51 1017.36 1018.00 1018.37 1018.70 1018.82 1018.89 1018.83 1018.54 1018.19 1018.07 1018.08 1017.99 1017.84 1018.05 1018.35 1018.56 1018.77 1019.01 1019.17 1019.17
1013.81 1014.01 1013.59 1014.01 1014.29 1014.79 1015.50 1015.95 1016.40 1017.11 1017.37 1017.17 1015.44 1013.04 1011.64 1010.78 1010.67 1011.26 1011.99 1012.97 1013.96 1015.00 1015.96 1016.99 1017.54 1018.06 1018.60 1018.95 1019.16 1019.24 1019.39 1019.45 1019.20 1018.95 1018.95 1019.02 1019.09 1019.22 1019.50 1019.67 1019.68 1019.78 1019.87 1019.74
1013.00 1013.81 1013.80 1014.45 1014.74 1014.50 1014.82 1015.60 1016.56 1017.12 1017.54 1016.70 1014.47 1013.01 1010.85 1010.56 1010.91 1011.34 1012.14 1012.80 1013.77 1014.90 1015.89 1016.80 1017.44 1018.16 1018.80 1019.20 1019.45 1019.65 1019.82 1020.02 1019.97 1019.81 1019.75 1019.79 1019.77 1019.93 1020.11 1020.36 1020.45 1020.50 1020.46 1020.37
1012.92 1013.48 1014.67 1014.68 1013.89 1013.88 1014.81 1015.30 1015.63 1016.11 1016.65 1015.44 1013.87 1011.64 1009.84 1009.66 1009.61 1010.50 1011.47 1012.38 1013.33 1014.50 1015.42 1016.38 1017.25 1018.15 1018.85 1019.35 1019.73 1019.95 1020.12 1020.43 1020.48 1020.41 1020.38 1020.32 1020.39 1020.54 1020.73 1020.92 1021.11 1021.04 1021.06 1020.97
1012.54 1013.40 1014.27 1014.00 1013.86 1013.77 1013.94 1014.11 1014.75 1014.84 1015.25 1015.22 1014.16 1010.86 1009.82 1009.59 1009.80 1010.08 1011.07 1012.06 1012.95 1013.98 1015.06 1016.37 1017.38 1018.24 1018.94 1019.44 1019.80 1020.15 1020.34 1020.45 1020.63 1020.81 1020.93 1020.97 1021.12 1021.26 1021.38 1021.51 1021.52 1021.53 1021.61 1021.45
1012.13 1013.16 1014.04 1014.44 1014.63 1013.79 1013.71 1014.04 1014.14 1014.51 1014.84 1014.08 1013.54 1010.43 1009.86 1009.83 1009.91 1010.29 1010.96 1011.98 1012.94 1014.07 1015.15 1016.26 1017.13 1017.87 1018.57 1019.15 1019.54 1019.97 1020.49 1020.78 1020.84 1021.13 1021.44 1021.56 1021.75 1021.85 1021.91 1021.84 1022.06 1021.97 1022.06 1022.06
1011.74 1012.48 1012.77 1012.35 1011.91 1012.87 1013.58 1013.32 1013.63 1013.99 1014.29 1013.10 1012.49 1010.22 1009.90 1009.92 1010.03 1010.36 1011.04 1011.69 1012.51 1013.64 1014.65 1015.49 1016.48 1017.26 1017.89 1018.66 1019.24 1019.90 1020.42 1020.95 1021.18 1021.46 1021.86 1022.19 1022.29 1022.33 1022.36 1022.40 1022.40 1022.25 1022.21 1022.09
1011.61 1012.39 1012.68 1012.34 1012.52 1012.41 1012.33 1012.53 1012.89 1013.04 1012.33 1012.23 1010.73 1011.01 1008.61 1009.30 1009.97 1010.12 1010.39 1011.13 1012.19 1012.96 1013.91 1014.80 1015.51 1016.39 1017.27 1018.14 1018.95 1019.70 1020.51 1021.02 1021.34 1021.80 1022.04 1022.33 1022.54 1022.82 1022.72 1022.61 1022.82 1022.83 1022.60 1022.59
1011.65 1012.35 1012.85 1012.73 1012.49 1012.53 1012.12 1012.11 1012.04 1011.64 1011.35 1011.36 1010.55 1009.77 1008.17 1008.91 1009.03 1009.12 1009.56 1010.18 1010.98 1012.07 1012.94 1013.52 1014.54 1015.60 1016.59 1017.65 1018.74 1019.52 1020.37 1020.85 1021.25 1021.83 1022.14 1022.34 1022.56 1022.82 1022.95 1022.91 1022.88 1022.96 1023.08 1023.24
1011.74 1012.35 1013.07 1012.79 1012.36 1012.56 1012.27 1011.04 1010.49 1010.77 1010.28 1009.90 1009.52 1008.28 1008.59 1008.10 1007.55 1008.04 1008.29 1009.04 1009.67 1010.34 1011.17 1012.14 1012.91 1014.31 1015.60 1016.80 1017.78 1019.13 1020.12 1020.74 1021.24 1021.82 1022.24 1022.46 1022.64 1023.02 1023.47 1023.36 1023.30 1023.40 1023.32 1023.46
1011.70 1012.35 1013.08 1012.62 1012.50 1011.49 1009.78 1009.41 1009.43 1009.10 1008.76 1008.63 1008.48 1008.01 1007.04 1006.54 1006.50 1007.18 1007.20 1007.68 1008.49 1009.14 1009.57 1010.68 1012.31 1013.65 1015.13 1016.45 1017.82 1019.03 1020.13 1020.78 1021.25 1021.78 1022.34 1022.79 1022.95 1023.25 1023.61 1023.67 1023.54 1023.60 1023.62 1023.73
1011.99 1012.41 1012.66 1012.52 1011.43 1010.59 1009.87 1008.24 1007.89 1007.87 1007.38 1007.74 1007.63 1006.53 1005.79 1006.27 1006.87 1006.39 1005.85 1006.63 1007.26 1007.68 1008.64 1009.70 1011.31 1013.31 1015.14 1016.53 1017.98 1019.19 1019.97 1020.60 1021.19 1021.92 1022.34 1022.72 1022.81 1023.39 1023.80 1023.87 1024.01 1024.01 1023.93 1023.80
1012.61 1012.56 1012.91 1012.25 1011.20 1009.91 1008.08 1006.97 1007.10 1007.51 1007.24 1006.03 1006.29 1006.84 1006.33 1005.89 1006.75 1005.64 1004.65 1006.10 1006.50 1007.09 1008.20 1010.14 1011.97 1013.91 1015.43 1016.76 1017.94 1019.13 1019.91 1020.43 1021.02 1021.65 1022.14 1022.50 1023.01 1023.14 1023.70 1024.13 1024.01 1024.14 1023.93 1024.01
1012.47 1012.61 1011.94 1011.22 1010.34 1009.35 1007.67 1006.77 1006.67 1007.83 1006.83 1005.88 1006.37 1006.68 1006.44 1006.64 1006.31 1005.46 1006.43 1007.01 1007.57 1008.30 1009.45 1011.11 1012.90 1014.44 1015.91 1017.06 1018.06 1019.12 1020.09 1020.65 1021.26 1021.80 1022.52 1022.91 1023.51 1023.70 1023.65 1024.24 1024.46 1024.15 1023.97 1024.65
1010.49 1010.92 1010.84 1010.62 1009.76 1008.58 1006.82 1007.03 1006.99 1005.98 1005.92 1005.74 1006.22 1006.58 1006.81 1007.07 1007.30 1007.64 1008.03 1008.63 1009.47 1010.19 1011.49 1012.79 1013.90 1015.41 1016.46 1017.34 1018.59 1019.38 1020.18 1021.14 1021.79 1022.05 1022.86 1023.42 1023.72 1023.67 1024.33 1024.26 1024.06 1024.16 1024.64 1024.76
1009.79 1008.54 1008.48 1008.30 1007.27 1006.87 1006.35 1006.39 1006.10 1006.62 1006.80 1006.48 1006.55 1006.51 1007.03 1007.63 1007.97 1008.64 1009.44 1010.23 1011.16 1011.78 1012.59 1013.65 1014.75 1016.08 1017.08 1017.83 1018.53 1019.62 1020.58 1021.44 1022.07 1022.46 1023.16 1023.58 1023.91 1024.42 1024.07 1023.80 1024.25 1024.75 1024.91 1024.95
1008.15 1007.81 1007.96 1007.98 1007.25 1006.93 1006.71 1006.66 1006.52 1006.46 1006.86 1006.64 1006.77 1007.03 1007.54 1007.82 1008.31 1008.76 1009.82 1011.27 1011.89 1013.00 1013.99 1015.05 1015.92 1016.79 1017.70 1018.38 1019.13 1019.86 1020.85 1021.60 1022.47 1022.93 1023.36 1023.58 1023.90 1024.05 1023.95 1023.93 1024.33 1024.74 1025.20 1025.24
1007.93 1007.88 1007.63 1007.29 1007.20 1007.22 1007.07 1006.92 1007.48 1007.55 1007.63 1007.70 1007.95 1008.13 1008.41 1008.80 1008.19 1008.88 1009.71 1011.45 1012.50 1013.40 1014.67 1015.38 1016.49 1017.50 1018.29 1019.00 1020.08 1020.74 1021.52 1022.19 1022.77 1023.01 1023.28 1023.47 1023.54 1023.55 1024.17 1024.22 1024.63 1024.92 1025.28 1025.23
1007.51 1007.54 1008.12 1007.68 1007.76 1007.85 1007.90 1008.52 1008.74 1008.98 1009.06 1008.94 1008.77 1008.76 1009.07 1009.95 1009.51 1007.35 1010.44 1012.02 1013.08 1013.85 1015.01 1015.75 1016.63 1017.71 1018.68 1019.59 1020.79 1021.71 1022.21 1022.34 1022.77 1023.24 1023.25 1023.32 1023.23 1023.51 1024.36 1024.75 1024.95 1025.04 1025.32 1025.37
Wind_Speed
8 5 12 11 12 10 10 9 8 7 9 6 8 9 10 9 9 10 10 9 9 9 8 7 5 8 9 9 9 9 9 9 6 3 3 3 4 3 4 7 8 9 8 9
6 14 10 10 8 12 12 12 10 7 5 2 5 11 15 14 15 14 10 9 9 8 8 5 8 9 8 8 8 8 7 8 7 5 4 4 4 4 3 4 6 7 8 9
15 1 17 13 12 14 13 14 8 7 6 5 4 15 20 17 23 16 11 9 7 8 8 5 8 9 9 8 7 7 7 8 8 10 5 3 1 1 1 3 5 8 10 9
13 18 11 15 14 14 15 10 13 11 6 6 6 8 12 7 3 8 13 13 10 8 6 7 8 8 7 6 7 7 7 9 10 11 9 4 3 3 1 3 5 3 1 2
8 12 19 14 15 8 6 5 9 8 6 6 12 7 6 11 9 8 8 8 9 9 8 8 8 7 6 5 5 6 7 7 8 9 9 7 9 6 5 6 9 10 9 11
13 3 7 16 6 9 6 3 3 1 2 9 12 11 8 11 11 9 5 8 9 8 8 9 7 6 6 5 5 6 6 7 9 10 11 11 11 8 7 9 8 7 7 7
10 13 3 2 11 6 5 9 2 2 3 7 9 13 15 8 4 0 11 9 8 7 8 7 7 6 5 5 6 5 7 7 9 11 12 10 11 11 11 9 7 8 7 7
10 6 16 10 10 11 14 13 6 8 6 4 13 11 7 6 8 8 8 9 9 8 7 7 7 6 6 5 6 6 7 7 7 8 11 11 12 8 8 9 7 7 6 6
10 7 6 14 8 16 11 19 13 6 2 2 6 6 9 6 5 6 7 7 8 8 8 7 7 6 6 6 5 6 6 6 7 7 8 8 8 9 8 9 8 6 7 8
2 2 9 7 6 7 6 6 9 3 4 5 7 8 12 4 7 8 8 10 9 9 9 8 7 7 5 5 5 6 6 6 6 7 6 6 7 7 7 7 8 7 7 7
5 3 2 8 11 15 10 6 6 5 7 5 5 6 3 6 12 14 11 8 9 9 8 8 7 7 6 5 5 5 5 6 5 5 5 6 6 6 7 7 7 6 6 7
9 4 6 11 5 12 16 16 15 7 9 5 12 18 5 7 4 6 8 7 8 9 9 8 8 8 7 6 5 5 5 6 5 5 5 6 6 6 6 6 7 7 7 7
14 5 3 2 4 7 10 16 18 17 1 14 11 16 11 8 3 4 6 8 7 8 8 8 8 8 8 8 7 6 5 5 5 5 5 5 5 5 6 6 6 7 7 8
15 5 14 17 13 9 11 14 19 18 12 18 18 26 18 13 6 6 7 8 9 9 10 9 8 8 8 8 7 6 5 5 5 5 5 5 5 5 5 6 6 7 6 8
10 9 13 17 13 10 10 16 20 19 25 19 22 19 27 18 12 8 12 9 10 13 13 12 13 10 9 8 7 7 6 5 5 5 5 5 5 4 5 6 6 6 6 7
8 5 5 8 15 16 18 16 13 23 23 19 24 25 26 15 8 9 14 16 17 13 16 17 14 12 12 12 9 8 7 6 6 5 5 5 5 4 5 5 5 5 6 7
9 7 6 14 12 11 13 21 23 19 18 21 22 26 20 23 23 18 17 13 18 19 19 20 20 16 14 14 12 9 8 6 6 6 5 4 5 5 4 4 5 5 6 5
8 11 8 11 2 16 12 9 16 25 24 23 22 21 25 27 23 11 8 10 16 19 22 17 15 15 12 11 10 10 8 7 7 7 6 5 6 5 4 3 5 5 4 5
1 4 7 10 13 13 9 12 17 14 23 19 22 29 30 23 14 18 22 13 13 17 16 18 15 12 13 13 11 10 9 8 8 8 8 7 7 4 4 4 4 3 4 5
10 4 8 5 10 13 18 18 14 3 11 23 18 19 23 25 14 18 25 10 12 10 10 13 14 15 15 12 12 11 10 9 9 9 8 7 6 5 5 3 4 2 3 5
9 9 17 13 10 5 10 7 4 8 13 2 3 8 18 14 12 20 3 4 4 6 16 15 15 14 12 12 11 11 10 10 9 8 7 6 4 3 5 3 2 2 4 3
13 9 7 8 9 15 9 2 9 5 3 0 1 2 4 5 8 2 5 8 9 14 14 12 13 12 11 11 10 11 10 9 8 8 7 6 3 3 4 3 2 3 2 2
7 9 5 9 7 4 3 5 3 4 6 5 4 6 4 5 4 7 5 7 8 11 11 11 12 12 10 10 10 11 10 8 7 7 7 5 5 4 3 5 3 3 3 3
5 7 12 12 12 13 9 7 9 7 8 5 4 3 4 6 7 7 8 7 9 9 9 9 11 11 10 8 9 10 9 8 7 7 7 7 5 4 2 3 3 3 3 3
9 4 14 15 7 7 9 7 4 6 5 4 1 3 5 9 7 8 7 9 9 11 9 11 10 10 10 9 10 8 8 8 7 6 5 6 5 5 3 4 3 3 3 3
11 13 7 11 5 7 8 3 4 6 6 6 5 4 4 9 9 11 7 6 9 11 10 10 11 11 11 11 9 7 6 6 7 7 5 3 4 4 3 2 2 5 4 3
Wind_Direction
201 198 206 197 215 232 269 277 285 245 245 178 227 261 274 278 273 223 223 231 240 252 271 260 59 59 43 29 11 357 342 322 310 288 222 207 211 224 210 187 183 193 211 248
194 227 217 223 219 222 242 259 265 290 314 97 295 273 274 265 261 253 245 248 251 257 277 290 76 63 47 31 13 345 322 310 302 295 262 196 190 213 199 169 167 184 205 226
216 236 208 233 220 231 231 240 248 259 292 209 277 270 251 248 240 247 245 237 238 245 264 75 70 63 47 26 358 334 333 333 341 332 290 280 208 355 34 173 207 204 200 209
228 233 196 219 227 209 232 213 236 248 241 245 196 282 298 277 246 220 219 228 219 225 118 88 68 59 48 14 354 348 17 11 1 358 355 278 178 195 275 352 37 79 3 253
206 195 221 218 226 221 237 294 254 224 250 272 258 279 263 230 258 242 205 200 202 110 107 97 89 87 70 32 9 358 30 23 14 26 28 37 56 53 45 48 58 54 50 45
238 28 217 227 225 216 164 86 45 357 258 246 228 231 227 233 211 218 195 128 122 118 105 97 95 93 72 34 24 15 39 33 31 35 40 52 59 52 54 44 46 48 42 33
217 222 183 224 201 171 221 160 180 224 217 234 203 208 244 303 328 25 184 135 125 124 128 131 121 91 71 47 31 36 36 37 36 43 40 42 55 57 53 53 48 43 41 30
184 211 210 168 218 189 203 202 175 198 198 231 205 236 243 208 245 169 130 147 138 139 125 122 128 125 103 70 46 50 41 36 39 47 44 37 39 50 47 42 46 46 31 34
183 231 155 175 186 175 188 215 214 328 150 124 241 262 304 167 169 132 138 138 154 159 140 149 137 121 109 92 65 60 61 49 35 50 54 47 42 49 51 44 45 47 34 34
167 120 181 178 184 239 186 152 201 205 239 232 242 246 240 203 186 193 193 188 177 150 152 150 144 128 112 111 93 72 72 69 49 51 52 55 52 53 58 53 45 40 42 34
154 128 209 145 199 188 198 208 216 183 212 211 247 236 196 237 213 190 203 188 169 160 158 155 147 135 128 113 100 92 79 76 56 67 60 62 57 53 56 56 44 39 43 33
188 154 173 207 198 223 217 214 205 204 219 247 259 260 43 100 94 155 172 173 162 157 159 154 143 144 155 148 131 118 101 96 67 65 67 57 53 60 64 59 54 37 46 44
178 220 153 214 226 229 218 225 227 233 162 220 223 257 207 248 8 110 150 154 165 157 156 158 160 171 171 165 151 130 115 98 85 80 72 67 61 61 61 61 53 51 49 43
159 189 212 224 222 139 207 218 222 226 238 244 240 257 261 267 253 189 184 191 182 170 176 178 175 187 168 154 149 137 127 116 104 97 88 73 65 65 66 61 62 59 54 60
152 214 229 243 260 269 227 212 218 229 232 229 250 244 258 257 260 219 198 200 184 191 188 190 195 186 164 155 143 139 137 126 126 115 102 95 75 62 64 66 59 57 52 60
170 233 185 257 250 244 256 262 250 232 245 255 253 258 259 274 263 237 228 199 205 195 199 202 195 186 171 164 162 159 148 150 132 120 115 110 98 79 72 74 72 71 61 54
179 201 183 244 235 236 252 239 244 254 244 236 245 252 265 262 256 257 254 219 205 201 200 201 197 185 178 172 159 158 148 145 136 133 121 103 102 93 62 70 72 52 64 61
192 197 210 246 265 245 242 241 225 233 241 244 252 258 255 255 262 266 243 204 210 207 209 200 188 181 163 144 140 132 143 147 140 124 125 129 110 105 96 83 83 70 73 67
174 150 231 234 237 261 299 243 219 221 244 239 242 247 256 268 268 266 253 229 224 216 205 196 180 153 130 133 135 144 154 143 142 150 146 136 125 117 113 94 81 55 68 73
188 174 213 200 237 240 243 241 237 246 247 240 244 250 253 259 261 261 264 211 232 191 158 137 130 130 133 136 138 148 156 160 158 153 143 129 138 129 116 96 90 75 76 83
196 213 223 232 244 266 266 213 101 182 239 198 190 267 264 266 248 266 144 44 67 97 117 118 127 135 136 138 144 156 157 165 149 135 128 127 141 119 95 111 109 86 74 82
182 177 202 220 231 247 237 31 201 228 301 296 166 173 315 303 306 357 100 103 108 118 121 124 123 125 132 145 154 154 159 141 138 137 140 138 148 122 133 129 92 77 73 102
242 202 199 181 211 220 229 230 244 167 233 234 218 178 145 273 248 166 140 120 120 127 128 127 129 130 143 154 155 150 136 134 136 139 146 145 137 143 146 99 82 97 60 65
259 224 240 256 260 255 245 232 232 224 233 250 226 205 165 230 194 180 149 151 140 138 133 125 131 139 137 136 135 125 130 128 145 154 155 151 141 133 75 103 100 93 62 59
232 196 237 252 266 300 279 252 6 310 272 251 180 221 246 244 192 175 151 153 148 140 140 142 143 143 136 112 109 113 124 143 158 147 152 147 133 106 104 86 84 93 88 113
225 240 232 246 250 227 242 17 8 351 325 311 279 298 291 276 230 128 115 140 145 140 145 144 143 139 136 125 119 120 139 161 156 157 151 136 119 100 106 111 126 133 110 80